Regional Weather Roundup
Issued by NWS Sioux Falls, SD

Home | Current Version | Previous Version | Text Only | Print | Product List | Glossary Off
Versions: 1 2 3 4 5 6 7 8 9 10 11 12 13 14 15 16 17 18 19 20 21 22 23 24 25 26 27 28 29 30 31 32 33 34 35 36 37 38 39 40 41 42 43 44 45 46 47 48 49 50

523
ASUS43 KFSD 081810
RWRFSD

WEATHER ROUNDUP FOR SE SOUTH DAKOTA/SW MINNESOTA/NW IOWA
NATIONAL WEATHER SERVICE SIOUX FALLS SD
1200 PM CST MON FEB 08 2016

NOTE: "FAIR" INDICATES FEW OR NO CLOUDS BELOW 12,000 FEET WITH NO
SIGNIFICANT WEATHER AND OR OBSTRUCTIONS TO VISIBILITY.


SDZ038>040-050-052>070-081900-
SOUTHEAST SOUTH DAKOTA

CITY           SKY/WX    TMP DP  RH WIND       PRES   REMARKS
BROOKINGS      FLURRIES  19  11  70 N30G37    30.06F WCI   0
CHAMBERLAIN    SUNNY     32  19  58 NW23G38   30.24F WCI  19
6HR MIN TEMP:  25; 6HR MAX TEMP:  32;

HURON          MOSUNNY   28  18  66 N17G29    30.18F WCI  16
6HR MIN TEMP:  22; 6HR MAX TEMP:  28;

MADISON        FLURRIES  19  18  93 N24G37    30.11F WCI   2
MITCHELL       MOSUNNY   30  19  63 N24G32    30.20F WCI  16
6HR MIN TEMP:  25; 6HR MAX TEMP:  30;

SIOUX FALLS    PTSUNNY   23  13  65 N32G39    30.11S WCI   5
6HR MIN TEMP:  20; 6HR MAX TEMP:  23; 6HR PCP: TRACE;

WINNER         FAIR      33  17  51 NW25G36   30.28F WCI  20
YANKTON        CLOUDY    28  18  64 NW26G32   30.17F WCI  13
$$

MNZ071-072-080-081-089-090-097-098-081900-
SOUTHWEST MINNESOTA

CITY           SKY/WX    TMP DP  RH WIND       PRES   REMARKS
FAIRMONT       CLOUDY   N/A N/A N/A NW28G40   29.96F
JACKSON        CLOUDY    14   9  79 NW35G45   30.00S WCI  -8
LUVERNE          N/A     21  12  68 N18G30    30.09S WCI   6
MARSHALL       LGT SNOW  16  10  79 N36G41    30.05F WCI  -6
6HR MIN TEMP:  12; 6HR MAX TEMP:  15; 6HR PCP: TRACE;

MONTEVIDEO     LGT SNOW  16  12  86 N29G41    30.09F WCI  -4
PIPESTONE      SUNNY     19   9  63 N22G35    30.06S WCI   3
REDWOOD FALLS  LGT SNOW  15   7  70 NW22G35   30.04F WCI  -3
TRACY          LGT SNOW  16  11  80 N32G45    30.07S WCI  -5
WINDOM         SNOW      12   9  85 NW37G44   30.00F VSB 1/2 WCI -11
WORTHINGTON    CLOUDY   N/A N/A N/A NW32G40   30.05R VSB 1/4
$$

IAZ001>003-012>014-020>022-031-032-NEZ013-014-SDZ071-081900-
NORTHWEST IOWA

CITY           SKY/WX    TMP DP  RH WIND       PRES   REMARKS
CHEROKEE       LGT SNOW  18  13  81 N24G38    30.08R WCI   0
DENISON        LGT RAIN  19  16  86 N29G38    30.05S VSB 1   WCI   1
ESTHERVILLE    LGT SNOW  14   9  80 NW33G40   29.99F VSB 3/4 WCI  -8
LE MARS        FLURRIES  23  18  80 N22G35    30.12S WCI   8
ORANGE CITY      N/A     19  18  93 N18G26    30.08S WCI   4
SHELDON        LGT SNOW  18  14  86 N31G38    30.06S VSB 3/4 WCI  -2
SIOUX CITY     FLURRIES  26  16  65 N38G47    30.11S WCI   8
6HR MIN TEMP:  25; 6HR MAX TEMP:  26; 6HR PCP: TRACE;

SPENCER        LGT SNOW  15   8  73 NW38G46   30.04S WCI  -7
6HR MIN TEMP:  14; 6HR MAX TEMP:  15; 6HR PCP:  0.01;

STORM LAKE     PTSUNNY   16  10  79 N37G43    30.03S WCI  -6
$$

ABBREVIATIONS USED IN REMARKS
   TC - TEMPERATURE IN CELSIUS
  WCI - WIND CHILL INDEX
   HX - HEAT INDEX
  VSB - VISIBILITY





USA.gov is the U.S. government's official web portal to all federal, state and local government web resources and services.